Вернуться в каталог

STARLINK-32287

АктивенСвязьVLEO
NORAD 60358·PAYLOAD·🇺🇸 United States

Запущен Aug 4, 2024 с Vandenberg Space Force Base

Loading…

Ближайшие Пролёты (ближайшие 24 часа)

TLE

СвежийSource: CelesTrak SupGP

Эпоха: Sep 14, 2026, 15:07 UTC

1 60358C 24138D   26257.63034722  .00056431  00000+0  16663-2 0  2578
2 60358  53.1566 151.0921 0001156 102.2006  56.0716 15.34380026    11

Отслеживайте STARLINK-32287 в реальном времени с AllMySat

Download on the App Store